sat.trackr.live / text

‹ back to catalog

LIZZIESAT-1 (LS-1)

NORAD 59132 · 2024-043AL

PAYLOAD ACTIVE UNKNOWN

§ Identity

Operator
Country
US
Launch date
2024-03-04
Launch site
AFWTR
Launch vehicle
Mass (kg)
RCS (m²)

External: N2YO · Heavens-Above · Gunter

§ Orbital elements

Epoch: 2026-05-25T02:28:28.372224Z

Period
94.28 min
Inclination
97.5603°
Eccentricity
0.0009935
Mean motion
15.27291363 rev/d
Perigee alt
477.1 km
Apogee alt
490.7 km
Semi-major
6,862.1 km
B*
1.1980e-4
RAAN
280.6001°
Arg perigee
333.9492°
Mean anomaly
26.1245°
Rev number
12,341

§ Raw data

LIZZIESAT-1 (LS-1)1 59132U 24043AL  26145.10310616  .00003129  00000+0  11980-3 0  99952 59132  97.5603 280.6001 0009935 333.9492  26.1245 15.27291363123418

JSON: /api/v1/satellites/59132 · /tle

For live sub-satellite position, see the globe view (requires WebGL).

§ Visibility from observer

Set your observer location to see the next 7 days of passes ≥ 10°. The values pass through the URL so the page stays shareable.

No JS? Fill the form by hand. The geolocation button needs JavaScript.

§ Radio — SatNOGS DB

ModeDescriptionDownlinkUplink
FM Mode S - Downlink 2.201 GHz
FM Mode S - Downlink 2.283 GHz
FM Mode S - Downlink 2.263 GHz
FSK Mode U - Downlink 400.504 MHz
FM Mode X - Downlink 8.045 GHz
FM Mode X - Downlink 8.378 GHz
BPSK S-band telemetry 2.260 GHz

7 transmitters · refreshed weekly from db.satnogs.org